sat.trackr.live / text

‹ back to catalog

YAOGAN-30 02A

NORAD 42945 · 2017-058A

PAYLOAD ACTIVE UNKNOWN

§ Identity

Operator
Country
PRC
Launch date
2017-09-29
Launch site
XICLF
Launch vehicle
Mass (kg)
RCS (m²)

External: N2YO · Heavens-Above · Gunter

§ Orbital elements

Epoch: 2026-05-25T05:18:05.424768Z

Period
95.81 min
Inclination
34.9959°
Eccentricity
0.0002614
Mean motion
15.02976157 rev/d
Perigee alt
555.9 km
Apogee alt
559.5 km
Semi-major
6,935.9 km
B*
1.4004e-4
RAAN
169.3181°
Arg perigee
296.3907°
Mean anomaly
63.6533°
Rev number
47,243

§ Raw data

YAOGAN-30 02A1 42945U 17058A   26145.22089612  .00001892  00000+0  14004-3 0  99942 42945  34.9959 169.3181 0002614 296.3907  63.6533 15.02976157472432

JSON: /api/v1/satellites/42945 · /tle

For live sub-satellite position, see the globe view (requires WebGL).

§ Visibility from observer

Set your observer location to see the next 7 days of passes ≥ 10°. The values pass through the URL so the page stays shareable.

No JS? Fill the form by hand. The geolocation button needs JavaScript.